Location: Harwich
(41.7160°N, 69.9939°W)
Time: 10:48:22
(UTC+02:00)

AO-85 - Visible Passes

Search period start: 16 September 2024 00:00
Search period end: 26 September 2024 00:00
Orbit: 485 x 752 km, 64.8° (Epoch: 15 September)

Date Brightness Start Highest point End Pass type
(mag) Time Alt. Az. Time Alt. Az. Time Alt. Az.
23 Sep ? 11:30:37 10° SE 11:33:02 14° ESE 11:35:32 10° ENE visible
24 Sep ? 11:45:32 10° S 11:49:35 28° ESE 11:53:52 10° NE visible
25 Sep ? 12:01:36 10° SSW 12:06:17 55° ESE 12:11:18 10° NE visible
